Time,TemperatureF,DewpointF,PressureIn,WindDirection,WindDirectionDegrees,WindSpeedMPH,WindSpeedGustMPH,Humidity,HourlyPrecipIn,Conditions,Clouds,dailyrainin,SoftwareType,DateUTC
2013-07-07 01:43:00,75.0,58.0,29.93,South,180,4.0,8.0,56,0.00,,,0.00,,2013-07-07 06:43:00,
2013-07-07 02:11:00,74.0,59.0,29.90,SSE,168,7.0,10.0,59,0.00,,,0.00,,2013-07-07 07:11:00,
2013-07-07 02:22:00,74.0,59.0,29.90,SW,219,0.0,6.0,60,0.00,,,0.00,,2013-07-07 07:22:00,
2013-07-07 02:33:00,73.0,58.0,29.90,SSW,210,0.0,6.0,60,0.00,,,0.00,,2013-07-07 07:33:00,
2013-07-07 02:44:00,73.0,59.0,29.90,SSW,200,5.0,6.0,61,0.00,,,0.00,,2013-07-07 07:44:00,
2013-07-07 02:53:00,73.0,59.0,29.90,South,186,5.0,5.0,61,0.00,,,0.00,,2013-07-07 07:53:00,
2013-07-07 03:02:00,73.0,59.0,29.90,SSE,168,10.0,10.0,61,0.00,,,0.00,,2013-07-07 08:02:00,
2013-07-07 03:12:00,73.0,59.0,29.90,SW,227,6.0,8.0,61,0.00,,,0.00,,2013-07-07 08:12:00,
2013-07-07 03:22:00,73.0,59.0,29.90,West,267,0.0,6.0,61,0.00,,,0.00,,2013-07-07 08:22:00,
2013-07-07 03:34:00,73.0,59.0,29.90,South,191,5.0,8.0,62,0.00,,,0.00,,2013-07-07 08:34:00,
2013-07-07 03:44:00,73.0,59.0,29.93,SSW,206,0.0,9.0,62,0.00,,,0.00,,2013-07-07 08:44:00,
2013-07-07 03:53:00,73.0,59.0,29.93,SSW,206,0.0,9.0,62,0.00,,,0.00,,2013-07-07 08:53:00,
2013-07-07 04:02:00,72.0,59.0,29.90,South,186,3.0,6.0,63,0.00,,,0.00,,2013-07-07 09:02:00,
2013-07-07 04:12:00,72.0,59.0,29.90,WSW,243,0.0,6.0,63,0.00,,,0.00,,2013-07-07 09:12:00,
2013-07-07 04:22:00,72.0,59.0,29.90,SSW,199,8.0,8.0,64,0.00,,,0.00,,2013-07-07 09:22:00,
2013-07-07 04:34:00,72.0,60.0,29.90,South,189,4.0,4.0,65,0.00,,,0.00,,2013-07-07 09:34:00,
2013-07-07 04:43:00,72.0,60.0,29.93,SSW,213,4.0,5.0,65,0.00,,,0.00,,2013-07-07 09:43:00,
2013-07-07 04:53:00,72.0,60.0,29.93,SSW,210,0.0,0.0,65,0.00,,,0.00,,2013-07-07 09:53:00,
2013-07-07 05:03:00,72.0,60.0,29.90,SSE,161,0.0,6.0,66,0.00,,,0.00,,2013-07-07 10:03:00,
2013-07-07 05:12:00,71.0,59.0,29.90,South,183,0.0,0.0,67,0.00,,,0.00,,2013-07-07 10:12:00,
2013-07-07 05:22:00,71.0,60.0,29.90,South,183,0.0,0.0,68,0.00,,,0.00,,2013-07-07 10:22:00,
2013-07-07 05:32:00,71.0,60.0,29.90,SSW,205,0.0,5.0,68,0.00,,,0.00,,2013-07-07 10:32:00,
2013-07-07 05:43:00,71.0,60.0,29.90,South,180,0.0,0.0,68,0.00,,,0.00,,2013-07-07 10:43:00,
2013-07-07 05:52:00,71.0,60.0,29.90,SSE,168,0.0,0.0,68,0.00,,,0.00,,2013-07-07 10:52:00,
2013-07-07 06:02:00,71.0,60.0,29.93,SSW,206,0.0,0.0,68,0.00,,,0.00,,2013-07-07 11:02:00,
2013-07-07 06:11:00,71.0,60.0,29.93,SSW,206,0.0,0.0,68,0.00,,,0.00,,2013-07-07 11:11:00,
2013-07-07 06:23:00,71.0,60.0,29.90,SSE,161,0.0,3.0,68,0.00,,,0.00,,2013-07-07 11:23:00,
2013-07-07 06:34:00,71.0,60.0,29.90,South,177,6.0,8.0,68,0.00,,,0.00,,2013-07-07 11:34:00,
2013-07-07 06:43:00,71.0,60.0,29.90,SSW,209,4.0,4.0,68,0.00,,,0.00,,2013-07-07 11:43:00,
2013-07-07 06:53:00,71.0,59.0,29.90,South,184,4.0,6.0,67,0.00,,,0.00,,2013-07-07 11:53:00,
2013-07-07 07:02:00,71.0,59.0,29.90,SSE,166,0.0,6.0,66,0.00,,,0.00,,2013-07-07 12:02:00,
2013-07-07 07:12:00,71.0,59.0,29.90,SSE,166,0.0,6.0,66,0.00,,,0.00,,2013-07-07 12:12:00,
2013-07-07 07:22:00,71.0,59.0,29.93,SSW,207,0.0,5.0,66,0.00,,,0.00,,2013-07-07 12:22:00,
2013-07-07 07:34:00,71.0,59.0,29.93,South,191,0.0,6.0,66,0.00,,,0.00,,2013-07-07 12:34:00,
2013-07-07 07:43:00,71.0,59.0,29.93,SSW,201,0.0,0.0,66,0.00,,,0.00,,2013-07-07 12:43:00,
2013-07-07 07:52:00,71.0,59.0,29.93,SE,135,0.0,0.0,66,0.00,,,0.00,,2013-07-07 12:52:00,
2013-07-07 08:11:00,73.0,59.0,29.93,SSE,165,0.0,4.0,61,0.00,,,0.00,,2013-07-07 13:11:00,
2013-07-07 09:34:00,80.0,58.0,29.93,SSW,208,3.0,3.0,47,0.00,,,0.00,,2013-07-07 14:34:00,
2013-07-07 23:33:00,80.0,60.0,29.90,SSW,207,3.0,5.0,50,0.00,,,0.00,,2013-07-08 04:33:00,